Time,TemperatureF,DewpointF,PressureIn,WindDirection,WindDirectionDegrees,WindSpeedMPH,WindSpeedGustMPH,Humidity,HourlyPrecipIn,Conditions,Clouds,dailyrainin,SoftwareType,DateUTC
2013-02-04 00:03:00,45.7,24.4,29.83,WSW,257,6.9,6.9,43,0.00,CLR,,0.00,WeatherDisplay:10.37,2013-02-04 06:03:00,
2013-02-04 00:08:00,46.0,24.8,29.83,WSW,243,7.6,7.6,43,0.00,CLR,,0.00,WeatherDisplay:10.37,2013-02-04 06:08:00,
2013-02-04 00:13:00,46.2,24.9,29.83,South,190,5.8,5.8,43,0.00,CLR,,0.00,WeatherDisplay:10.37,2013-02-04 06:13:00,
2013-02-04 00:18:00,46.4,25.1,29.83,West,259,8.1,8.1,43,0.00,CLR,,0.00,WeatherDisplay:10.37,2013-02-04 06:18:00,
2013-02-04 00:23:00,46.6,24.7,29.83,WSW,241,5.8,5.8,42,0.00,CLR,,0.00,WeatherDisplay:10.37,2013-02-04 06:23:00,
2013-02-04 00:28:00,46.8,24.9,29.83,SW,230,9.2,9.2,42,0.00,CLR,,0.00,WeatherDisplay:10.37,2013-02-04 06:28:00,
2013-02-04 00:33:00,46.8,24.9,29.83,WSW,237,8.1,8.1,42,0.00,CLR,,0.00,WeatherDisplay:10.37,2013-02-04 06:33:00,
2013-02-04 00:38:00,46.8,24.9,29.83,SW,231,9.2,9.2,42,0.00,CLR,,0.00,WeatherDisplay:10.37,2013-02-04 06:38:00,
2013-02-04 00:43:00,46.8,24.9,29.83,SSW,203,4.6,4.6,42,0.00,CLR,,0.00,WeatherDisplay:10.37,2013-02-04 06:43:00,
2013-02-04 00:48:00,46.8,24.9,29.83,SW,221,9.2,9.2,42,0.00,CLR,,0.00,WeatherDisplay:10.37,2013-02-04 06:48:00,
2013-02-04 00:53:00,46.9,25.0,29.83,SE,141,8.1,8.1,42,0.00,CLR,,0.00,WeatherDisplay:10.37,2013-02-04 06:53:00,
2013-02-04 00:58:00,46.9,25.0,29.83,SW,224,5.8,5.8,42,0.00,CLR,,0.00,WeatherDisplay:10.37,2013-02-04 06:58:00,
2013-02-04 01:03:00,46.9,23.8,29.80,SSW,204,9.2,9.2,40,0.00,CLR,,0.00,WeatherDisplay:10.37,2013-02-04 07:03:00,
2013-02-04 01:08:00,46.9,23.8,29.80,WSW,245,8.1,8.1,40,0.00,CLR,,0.00,WeatherDisplay:10.37,2013-02-04 07:08:00,
2013-02-04 01:13:00,46.9,23.8,29.80,WSW,241,8.1,8.1,40,0.00,CLR,,0.00,WeatherDisplay:10.37,2013-02-04 07:13:00,
2013-02-04 01:18:00,46.9,23.8,29.80,SW,220,5.8,5.8,40,0.00,CLR,,0.00,WeatherDisplay:10.37,2013-02-04 07:18:00,
2013-02-04 01:23:00,47.1,24.0,29.80,SSE,166,5.8,5.8,40,0.00,CLR,,0.00,WeatherDisplay:10.37,2013-02-04 07:23:00,
2013-02-04 01:28:00,46.9,23.8,29.80,WSW,242,5.8,5.8,40,0.00,CLR,,0.00,WeatherDisplay:10.37,2013-02-04 07:28:00,
2013-02-04 01:33:00,46.9,23.8,29.80,SW,215,8.1,8.1,40,0.00,CLR,,0.00,WeatherDisplay:10.37,2013-02-04 07:33:00,
2013-02-04 01:38:00,46.8,23.7,29.80,SSW,195,10.4,10.4,40,0.00,CLR,,0.00,WeatherDisplay:10.37,2013-02-04 07:38:00,
2013-02-04 01:43:00,46.8,23.7,29.80,SSW,204,8.1,8.1,40,0.00,CLR,,0.00,WeatherDisplay:10.37,2013-02-04 07:43:00,
2013-02-04 01:48:00,46.6,23.5,29.80,WSW,253,5.8,5.8,40,0.00,CLR,,0.00,WeatherDisplay:10.37,2013-02-04 07:48:00,
2013-02-04 01:53:00,46.6,23.5,29.80,SW,223,5.8,5.8,40,0.00,CLR,,0.00,WeatherDisplay:10.37,2013-02-04 07:53:00,
2013-02-04 01:58:00,46.6,23.5,29.80,SSW,195,8.1,8.1,40,0.00,CLR,,0.00,WeatherDisplay:10.37,2013-02-04 07:58:00,
2013-02-04 02:03:00,46.6,23.5,29.80,SSW,201,6.9,6.9,40,0.00,CLR,,0.00,WeatherDisplay:10.37,2013-02-04 08:03:00,
2013-02-04 02:08:00,46.6,23.5,29.80,West,260,4.6,4.6,40,0.00,CLR,,0.00,WeatherDisplay:10.37,2013-02-04 08:08:00,
2013-02-04 02:13:00,46.6,23.5,29.80,SSW,213,3.6,3.6,40,0.00,CLR,,0.00,WeatherDisplay:10.37,2013-02-04 08:13:00,
2013-02-04 02:18:00,46.6,23.5,29.80,NW,315,3.5,3.5,40,0.00,CLR,,0.00,WeatherDisplay:10.37,2013-02-04 08:18:00,
2013-02-04 02:23:00,46.6,23.5,29.80,NW,313,3.5,3.5,40,0.00,CLR,,0.00,WeatherDisplay:10.37,2013-02-04 08:23:00,
2013-02-04 02:28:00,46.4,23.4,29.80,WSW,256,3.5,3.5,40,0.00,CLR,,0.00,WeatherDisplay:10.37,2013-02-04 08:28:00,
2013-02-04 02:33:00,46.2,23.2,29.83,SW,227,5.8,5.8,40,0.00,CLR,,0.00,WeatherDisplay:10.37,2013-02-04 08:33:00,
2013-02-04 02:38:00,45.9,22.9,29.83,WNW,303,3.5,3.5,40,0.00,CLR,,0.00,WeatherDisplay:10.37,2013-02-04 08:38:00,
2013-02-04 02:43:00,45.9,22.9,29.83,NW,310,2.3,0.0,40,0.00,CLR,,0.00,WeatherDisplay:10.37,2013-02-04 08:43:00,
2013-02-04 02:48:00,45.5,22.5,29.83,West,267,3.5,3.5,40,0.00,CLR,,0.00,WeatherDisplay:10.37,2013-02-04 08:48:00,
2013-02-04 02:53:00,45.3,22.4,29.83,West,275,3.5,0.0,40,0.00,CLR,,0.00,WeatherDisplay:10.37,2013-02-04 08:53:00,
2013-02-04 02:58:00,44.8,21.9,29.83,West,263,0.0,2.2,40,0.00,CLR,,0.00,WeatherDisplay:10.37,2013-02-04 08:58:00,
2013-02-04 03:03:00,44.2,21.4,29.83,WSW,247,3.5,3.5,40,0.00,CLR,,0.00,WeatherDisplay:10.37,2013-02-04 09:03:00,
2013-02-04 03:08:00,43.9,21.1,29.83,West,265,2.3,0.0,40,0.00,CLR,,0.00,WeatherDisplay:10.37,2013-02-04 09:08:00,
2013-02-04 03:13:00,43.5,20.8,29.83,West,265,2.3,0.0,40,0.00,CLR,,0.00,WeatherDisplay:10.37,2013-02-04 09:13:00,
2013-02-04 03:18:00,43.2,20.4,29.83,West,265,0.0,0.0,40,0.00,CLR,,0.00,WeatherDisplay:10.37,2013-02-04 09:18:00,
2013-02-04 03:23:00,42.8,21.8,29.83,West,265,0.0,0.0,43,0.00,CLR,,0.00,WeatherDisplay:10.37,2013-02-04 09:23:00,
2013-02-04 03:28:00,42.1,21.2,29.83,West,265,0.0,0.0,43,0.00,CLR,,0.00,WeatherDisplay:10.37,2013-02-04 09:28:00,
2013-02-04 03:33:00,41.5,20.7,29.83,West,265,0.0,0.0,43,0.00,CLR,,0.00,WeatherDisplay:10.37,2013-02-04 09:33:00,
2013-02-04 03:38:00,41.0,20.2,29.83,West,265,0.0,0.0,43,0.00,CLR,,0.00,WeatherDisplay:10.37,2013-02-04 09:38:00,
2013-02-04 03:43:00,40.6,19.9,29.83,West,265,0.0,0.0,43,0.00,CLR,,0.00,WeatherDisplay:10.37,2013-02-04 09:43:00,
2013-02-04 03:48:00,40.3,19.5,29.83,West,265,0.0,0.0,43,0.00,CLR,,0.00,WeatherDisplay:10.37,2013-02-04 09:48:00,
2013-02-04 03:53:00,39.7,19.0,29.83,West,265,0.0,0.0,43,0.00,CLR,,0.00,WeatherDisplay:10.37,2013-02-04 09:53:00,
2013-02-04 03:58:00,39.4,18.7,29.83,West,265,0.0,0.0,43,0.00,CLR,,0.00,WeatherDisplay:10.37,2013-02-04 09:58:00,
2013-02-04 04:03:00,39.0,18.4,29.83,West,265,0.0,0.0,43,0.00,CLR,,0.00,WeatherDisplay:10.37,2013-02-04 10:03:00,
2013-02-04 04:08:00,38.7,18.1,29.83,West,265,0.0,0.0,43,0.00,CLR,,0.00,WeatherDisplay:10.37,2013-02-04 10:08:00,
2013-02-04 04:13:00,38.3,17.7,29.83,West,265,0.0,0.0,43,0.00,CLR,,0.00,WeatherDisplay:10.37,2013-02-04 10:13:00,
2013-02-04 04:19:00,37.9,17.4,29.83,West,265,0.0,0.0,43,0.00,CLR,,0.00,WeatherDisplay:10.37,2013-02-04 10:19:00,
2013-02-04 04:24:00,37.6,19.1,29.83,West,265,0.0,0.0,47,0.00,CLR,,0.00,WeatherDisplay:10.37,2013-02-04 10:24:00,
2013-02-04 04:29:00,37.2,18.8,29.83,West,265,0.0,0.0,47,0.00,CLR,,0.00,WeatherDisplay:10.37,2013-02-04 10:29:00,
2013-02-04 04:34:00,36.9,18.5,29.83,West,265,0.0,0.0,47,0.00,CLR,,0.00,WeatherDisplay:10.37,2013-02-04 10:34:00,
2013-02-04 04:39:00,36.5,18.2,29.83,West,265,0.0,0.0,47,0.00,CLR,,0.00,WeatherDisplay:10.37,2013-02-04 10:39:00,
2013-02-04 04:44:00,36.1,17.8,29.83,West,265,0.0,0.0,47,0.00,CLR,,0.00,WeatherDisplay:10.37,2013-02-04 10:44:00,
2013-02-04 04:49:00,35.8,17.5,29.83,West,265,0.0,0.0,47,0.00,CLR,,0.00,WeatherDisplay:10.37,2013-02-04 10:49:00,
2013-02-04 04:54:00,35.4,17.2,29.83,West,265,0.0,0.0,47,0.00,CLR,,0.00,WeatherDisplay:10.37,2013-02-04 10:54:00,
2013-02-04 04:59:00,35.1,16.8,29.83,West,265,0.0,0.0,47,0.00,CLR,,0.00,WeatherDisplay:10.37,2013-02-04 10:59:00,
2013-02-04 05:04:00,34.9,23.9,29.83,West,265,0.0,0.0,64,0.00,CLR,,0.00,WeatherDisplay:10.37,2013-02-04 11:04:00,
2013-02-04 05:09:00,34.5,23.6,29.83,West,265,0.0,0.0,64,0.00,CLR,,0.00,WeatherDisplay:10.37,2013-02-04 11:09:00,
2013-02-04 05:14:00,34.2,23.2,29.83,West,265,0.0,0.0,64,0.00,CLR,,0.00,WeatherDisplay:10.37,2013-02-04 11:14:00,
2013-02-04 05:19:00,33.8,22.9,29.83,West,265,0.0,0.0,64,0.00,CLR,,0.00,WeatherDisplay:10.37,2013-02-04 11:19:00,
2013-02-04 05:24:00,33.4,22.6,29.83,West,265,0.0,0.0,64,0.00,CLR,,0.00,WeatherDisplay:10.37,2013-02-04 11:24:00,
2013-02-04 05:29:00,33.1,22.2,29.83,West,264,0.0,0.0,64,0.00,CLR,,0.00,WeatherDisplay:10.37,2013-02-04 11:29:00,
2013-02-04 05:34:00,32.7,21.9,29.83,West,265,0.0,0.0,64,0.00,CLR,,0.00,WeatherDisplay:10.37,2013-02-04 11:34:00,
2013-02-04 05:39:00,32.5,21.7,29.83,West,265,0.0,0.0,64,0.00,CLR,,0.00,WeatherDisplay:10.37,2013-02-04 11:39:00,
2013-02-04 05:44:00,32.2,21.4,29.83,West,265,0.0,0.0,64,0.00,CLR,,0.00,WeatherDisplay:10.37,2013-02-04 11:44:00,
2013-02-04 05:49:00,32.0,21.2,29.83,West,265,0.0,0.0,64,0.00,CLR,,0.00,WeatherDisplay:10.37,2013-02-04 11:49:00,
2013-02-04 05:54:00,31.8,21.0,29.83,West,264,0.0,0.0,64,0.00,CLR,,0.00,WeatherDisplay:10.37,2013-02-04 11:54:00,
2013-02-04 05:59:00,31.6,20.8,29.83,West,265,0.0,0.0,64,0.00,CLR,,0.00,WeatherDisplay:10.37,2013-02-04 11:59:00,
2013-02-04 06:04:00,31.3,23.0,29.83,West,265,0.0,0.0,71,0.00,CLR,,0.00,WeatherDisplay:10.37,2013-02-04 12:04:00,
2013-02-04 06:09:00,31.1,22.8,29.83,West,264,0.0,0.0,71,0.00,CLR,,0.00,WeatherDisplay:10.37,2013-02-04 12:09:00,
2013-02-04 06:14:00,30.7,22.4,29.83,West,265,0.0,0.0,71,0.00,CLR,,0.00,WeatherDisplay:10.37,2013-02-04 12:14:00,
2013-02-04 06:19:00,30.6,22.3,29.83,West,265,0.0,0.0,71,0.00,CLR,,0.00,WeatherDisplay:10.37,2013-02-04 12:19:00,
2013-02-04 06:24:00,30.4,22.1,29.83,West,264,0.0,0.0,71,0.00,CLR,,0.00,WeatherDisplay:10.37,2013-02-04 12:24:00,
2013-02-04 06:29:00,30.2,21.9,29.83,West,264,0.0,0.0,71,0.00,CLR,,0.00,WeatherDisplay:10.37,2013-02-04 12:29:00,
2013-02-04 06:34:00,30.0,21.8,29.83,West,264,0.0,0.0,71,0.00,CLR,,0.00,WeatherDisplay:10.37,2013-02-04 12:34:00,
2013-02-04 06:39:00,29.8,21.6,29.83,West,265,0.0,0.0,71,0.00,CLR,,0.00,WeatherDisplay:10.37,2013-02-04 12:39:00,
2013-02-04 06:44:00,29.5,21.2,29.83,West,265,0.0,0.0,71,0.00,CLR,,0.00,WeatherDisplay:10.37,2013-02-04 12:44:00,
2013-02-04 06:49:00,29.5,21.2,29.85,West,265,0.0,0.0,71,0.00,CLR,,0.00,WeatherDisplay:10.37,2013-02-04 12:49:00,
2013-02-04 06:54:00,29.3,21.1,29.85,West,265,0.0,0.0,71,0.00,CLR,,0.00,WeatherDisplay:10.37,2013-02-04 12:54:00,
2013-02-04 06:59:00,29.1,20.9,29.85,West,265,0.0,0.0,71,0.00,CLR,,0.00,WeatherDisplay:10.37,2013-02-04 12:59:00,
2013-02-04 07:04:00,28.9,22.9,29.85,West,265,0.0,0.0,78,0.00,CLR,,0.00,WeatherDisplay:10.37,2013-02-04 13:04:00,
2013-02-04 07:09:00,28.9,22.9,29.85,West,264,0.0,0.0,78,0.00,CLR,,0.00,WeatherDisplay:10.37,2013-02-04 13:09:00,
2013-02-04 07:14:00,28.9,22.9,29.85,West,265,0.0,0.0,78,0.00,CLR,,0.00,WeatherDisplay:10.37,2013-02-04 13:14:00,
2013-02-04 07:19:00,29.1,23.1,29.88,WSW,248,3.5,0.0,78,0.00,CLR,,0.00,WeatherDisplay:10.37,2013-02-04 13:19:00,
2013-02-04 07:24:00,29.7,23.6,29.88,NNW,331,2.3,0.0,78,0.00,CLR,,0.00,WeatherDisplay:10.37,2013-02-04 13:24:00,
2013-02-04 07:29:00,30.6,24.5,29.88,NW,316,2.3,0.0,78,0.00,CLR,,0.00,WeatherDisplay:10.37,2013-02-04 13:29:00,
2013-02-04 07:34:00,31.6,25.6,29.88,NNW,334,2.7,0.0,78,0.00,CLR,,0.00,WeatherDisplay:10.37,2013-02-04 13:34:00,
2013-02-04 07:39:00,32.5,26.4,29.88,WNW,283,0.0,0.0,78,0.00,CLR,,0.00,WeatherDisplay:10.37,2013-02-04 13:39:00,
2013-02-04 07:44:00,33.3,27.1,29.88,NW,312,0.0,0.0,78,0.00,CLR,,0.00,WeatherDisplay:10.37,2013-02-04 13:44:00,
2013-02-04 07:49:00,33.6,27.5,29.88,North,357,2.3,0.0,78,0.00,CLR,,0.00,WeatherDisplay:10.37,2013-02-04 13:49:00,
2013-02-04 07:54:00,34.3,28.2,29.88,North,8,3.5,3.5,78,0.00,CLR,,0.00,WeatherDisplay:10.37,2013-02-04 13:54:00,
2013-02-04 07:59:00,35.1,28.9,29.88,NNE,33,3.6,3.6,78,0.00,CLR,,0.00,WeatherDisplay:10.37,2013-02-04 13:59:00,
2013-02-04 08:04:00,35.6,26.4,29.91,NNE,16,3.5,3.5,69,0.00,CLR,,0.00,WeatherDisplay:10.37,2013-02-04 14:04:00,
2013-02-04 08:09:00,36.1,26.9,29.91,NNE,25,3.5,0.0,69,0.00,CLR,,0.00,WeatherDisplay:10.37,2013-02-04 14:09:00,
2013-02-04 08:14:00,36.7,27.5,29.91,NNE,15,5.8,5.8,69,0.00,CLR,,0.00,WeatherDisplay:10.37,2013-02-04 14:14:00,
2013-02-04 08:19:00,37.0,27.8,29.91,NNE,15,0.0,0.0,69,0.00,CLR,,0.00,WeatherDisplay:10.37,2013-02-04 14:19:00,
2013-02-04 08:24:00,37.4,28.2,29.91,NNE,30,5.8,0.0,69,0.00,CLR,,0.00,WeatherDisplay:10.37,2013-02-04 14:24:00,
2013-02-04 08:29:00,38.1,28.8,29.91,NNE,24,3.5,0.0,69,0.00,CLR,,0.00,WeatherDisplay:10.37,2013-02-04 14:29:00,
2013-02-04 08:34:00,38.7,29.4,29.91,NNE,29,4.0,4.0,69,0.00,CLR,,0.00,WeatherDisplay:10.37,2013-02-04 14:34:00,
2013-02-04 08:39:00,39.4,30.1,29.91,NNE,15,3.5,3.5,69,0.00,CLR,,0.00,WeatherDisplay:10.37,2013-02-04 14:39:00,
2013-02-04 08:44:00,39.7,30.4,29.91,NNE,18,5.8,5.8,69,0.00,CLR,,0.00,WeatherDisplay:10.37,2013-02-04 14:44:00,
2013-02-04 08:49:00,40.1,30.7,29.91,North,10,6.3,6.3,69,0.00,CLR,,0.00,WeatherDisplay:10.37,2013-02-04 14:49:00,
2013-02-04 08:54:00,40.5,31.1,29.91,NE,41,4.6,4.6,69,0.00,CLR,,0.00,WeatherDisplay:10.37,2013-02-04 14:54:00,
2013-02-04 08:59:00,40.6,31.3,29.91,ENE,72,9.2,9.2,69,0.00,CLR,,0.00,WeatherDisplay:10.37,2013-02-04 14:59:00,
2013-02-04 09:04:00,40.8,28.4,29.94,North,1,3.5,3.5,61,0.00,CLR,,0.00,WeatherDisplay:10.37,2013-02-04 15:04:00,
2013-02-04 09:09:00,41.0,28.6,29.94,NNE,17,8.1,8.1,61,0.00,CLR,,0.00,WeatherDisplay:10.37,2013-02-04 15:09:00,
2013-02-04 09:14:00,41.2,28.7,29.94,NNE,19,4.6,4.6,61,0.00,CLR,,0.00,WeatherDisplay:10.37,2013-02-04 15:14:00,
2013-02-04 09:19:00,41.5,29.1,29.94,NNW,348,5.8,5.8,61,0.00,CLR,,0.00,WeatherDisplay:10.37,2013-02-04 15:19:00,
2013-02-04 09:24:00,41.7,29.3,29.94,NE,43,4.6,4.6,61,0.00,CLR,,0.00,WeatherDisplay:10.37,2013-02-04 15:24:00,
2013-02-04 09:29:00,42.1,29.6,29.94,NE,34,3.5,3.5,61,0.00,CLR,,0.00,WeatherDisplay:10.37,2013-02-04 15:29:00,
2013-02-04 09:34:00,42.4,29.9,29.94,North,352,5.8,5.8,61,0.00,CLR,,0.00,WeatherDisplay:10.37,2013-02-04 15:34:00,
2013-02-04 09:39:00,42.4,29.9,29.94,NNE,32,5.8,5.8,61,0.00,CLR,,0.00,WeatherDisplay:10.37,2013-02-04 15:39:00,
2013-02-04 09:44:00,42.6,30.1,29.94,NNE,30,5.8,5.8,61,0.00,CLR,,0.00,WeatherDisplay:10.37,2013-02-04 15:44:00,
2013-02-04 09:49:00,42.8,30.3,29.94,NNW,334,8.1,8.1,61,0.00,CLR,,0.00,WeatherDisplay:10.37,2013-02-04 15:49:00,
2013-02-04 09:54:00,43.0,30.4,29.94,North,8,5.8,5.8,61,0.00,CLR,,0.00,WeatherDisplay:10.37,2013-02-04 15:54:00,
2013-02-04 09:59:00,42.8,30.3,29.94,NNW,345,8.1,8.1,61,0.00,CLR,,0.00,WeatherDisplay:10.37,2013-02-04 15:59:00,
2013-02-04 10:04:00,42.6,27.1,29.94,NNE,22,8.1,8.1,54,0.00,CLR,,0.00,WeatherDisplay:10.37,2013-02-04 16:04:00,
2013-02-04 10:09:00,42.6,27.1,29.94,West,259,8.1,8.1,54,0.00,CLR,,0.00,WeatherDisplay:10.37,2013-02-04 16:09:00,
2013-02-04 10:14:00,42.4,27.0,29.94,NNW,331,9.2,9.2,54,0.00,CLR,,0.00,WeatherDisplay:10.37,2013-02-04 16:14:00,
2013-02-04 10:19:00,42.4,27.0,29.94,NNE,23,8.1,8.1,54,0.00,CLR,,0.00,WeatherDisplay:10.37,2013-02-04 16:19:00,
2013-02-04 10:24:00,42.4,27.0,29.94,NE,54,8.1,8.1,54,0.00,CLR,,0.00,WeatherDisplay:10.37,2013-02-04 16:24:00,
2013-02-04 10:29:00,42.4,27.0,29.94,North,357,10.4,10.4,54,0.00,CLR,,0.00,WeatherDisplay:10.37,2013-02-04 16:29:00,
2013-02-04 10:34:00,42.3,26.8,29.94,North,1,8.1,8.1,54,0.00,CLR,,0.00,WeatherDisplay:10.37,2013-02-04 16:34:00,
2013-02-04 10:39:00,42.1,26.6,29.94,North,357,5.8,5.8,54,0.00,CLR,,0.00,WeatherDisplay:10.37,2013-02-04 16:39:00,
2013-02-04 10:44:00,42.3,26.8,29.94,ENE,62,5.8,5.8,54,0.00,CLR,,0.00,WeatherDisplay:10.37,2013-02-04 16:44:00,
2013-02-04 10:49:00,42.4,27.0,29.97,WNW,300,3.5,3.6,54,0.00,CLR,,0.00,WeatherDisplay:10.37,2013-02-04 16:49:00,
2013-02-04 10:54:00,42.4,27.0,29.97,NNE,25,8.1,8.1,54,0.00,CLR,,0.00,WeatherDisplay:10.37,2013-02-04 16:54:00,
2013-02-04 10:59:00,42.3,26.8,29.97,North,1,9.2,9.2,54,0.00,CLR,,0.00,WeatherDisplay:10.37,2013-02-04 16:59:00,
2013-02-04 11:04:00,42.3,28.1,29.97,NE,39,8.1,8.1,57,0.00,CLR,,0.00,WeatherDisplay:10.37,2013-02-04 17:04:00,
2013-02-04 11:09:00,41.7,27.6,29.97,ENE,74,9.2,9.2,57,0.00,CLR,,0.00,WeatherDisplay:10.37,2013-02-04 17:09:00,
2013-02-04 11:14:00,41.4,27.3,29.97,North,10,8.1,8.1,57,0.00,CLR,,0.00,WeatherDisplay:10.37,2013-02-04 17:14:00,
2013-02-04 11:19:00,41.5,27.4,29.97,NNE,14,5.8,5.8,57,0.00,CLR,,0.00,WeatherDisplay:10.37,2013-02-04 17:19:00,
2013-02-04 11:24:00,41.7,27.6,29.97,NE,35,5.8,5.8,57,0.00,CLR,,0.00,WeatherDisplay:10.37,2013-02-04 17:24:00,
2013-02-04 11:29:00,41.7,27.6,29.97,NW,315,9.2,9.2,57,0.00,CLR,,0.00,WeatherDisplay:10.37,2013-02-04 17:29:00,
2013-02-04 11:34:00,41.7,27.6,29.97,North,1,5.8,5.8,57,0.00,CLR,,0.00,WeatherDisplay:10.37,2013-02-04 17:34:00,
2013-02-04 11:39:00,41.7,27.6,29.97,NNW,342,15.0,15.0,57,0.00,CLR,,0.00,WeatherDisplay:10.37,2013-02-04 17:39:00,
2013-02-04 11:44:00,41.4,27.3,29.97,NE,39,8.1,8.1,57,0.00,CLR,,0.00,WeatherDisplay:10.37,2013-02-04 17:44:00,
2013-02-04 11:49:00,41.2,27.1,29.97,North,357,6.9,6.9,57,0.00,CLR,,0.00,WeatherDisplay:10.37,2013-02-04 17:49:00,
2013-02-04 11:54:00,41.4,27.3,29.97,NW,324,6.9,6.9,57,0.00,CLR,,0.00,WeatherDisplay:10.37,2013-02-04 17:54:00,
2013-02-04 11:59:00,41.2,27.1,29.97,WNW,294,9.2,9.2,57,0.00,CLR,,0.00,WeatherDisplay:10.37,2013-02-04 17:59:00,
2013-02-04 12:04:00,41.2,27.1,29.97,NE,38,9.2,9.2,57,0.00,CLR,,0.00,WeatherDisplay:10.37,2013-02-04 18:04:00,
2013-02-04 12:09:00,40.6,26.6,29.97,NNE,28,9.2,9.2,57,0.00,CLR,,0.00,WeatherDisplay:10.37,2013-02-04 18:09:00,
2013-02-04 12:14:00,40.3,26.2,29.97,ENE,73,8.1,8.1,57,0.00,CLR,,0.00,WeatherDisplay:10.37,2013-02-04 18:14:00,
2013-02-04 12:19:00,39.7,25.7,29.97,NE,40,8.1,8.1,57,0.00,CLR,,0.00,WeatherDisplay:10.37,2013-02-04 18:19:00,
2013-02-04 12:24:00,39.6,25.6,29.97,North,7,9.2,9.2,57,0.00,CLR,,0.00,WeatherDisplay:10.37,2013-02-04 18:24:00,
2013-02-04 12:29:00,39.4,25.4,29.97,NNE,33,8.3,8.3,57,0.00,CLR,,0.00,WeatherDisplay:10.37,2013-02-04 18:29:00,
2013-02-04 12:34:00,39.2,25.2,30.00,North,9,5.8,5.8,57,0.00,CLR,,0.00,WeatherDisplay:10.37,2013-02-04 18:34:00,
2013-02-04 12:39:00,39.6,25.6,30.00,North,6,8.1,8.1,57,0.00,CLR,,0.00,WeatherDisplay:10.37,2013-02-04 18:39:00,
2013-02-04 12:44:00,39.4,25.4,30.00,North,9,8.1,8.1,57,0.00,CLR,,0.00,WeatherDisplay:10.37,2013-02-04 18:44:00,
2013-02-04 12:49:00,39.2,25.2,29.97,WNW,289,4.6,4.6,57,0.00,CLR,,0.00,WeatherDisplay:10.37,2013-02-04 18:49:00,
2013-02-04 12:54:00,39.2,25.2,29.97,NW,308,8.1,8.1,57,0.00,CLR,,0.00,WeatherDisplay:10.37,2013-02-04 18:54:00,
2013-02-04 12:59:00,39.0,25.1,29.97,NNW,338,5.8,5.8,57,0.00,CLR,,0.00,WeatherDisplay:10.37,2013-02-04 18:59:00,
2013-02-04 13:04:00,38.7,24.7,29.97,NNW,332,9.2,9.2,57,0.00,CLR,,0.00,WeatherDisplay:10.37,2013-02-04 19:04:00,
2013-02-04 13:09:00,38.5,24.6,29.97,NNE,18,5.8,5.8,57,0.00,CLR,,0.00,WeatherDisplay:10.37,2013-02-04 19:09:00,
2013-02-04 13:14:00,38.3,24.4,29.97,NNW,338,6.3,6.3,57,0.00,CLR,,0.00,WeatherDisplay:10.37,2013-02-04 19:14:00,
2013-02-04 13:19:00,38.1,24.2,29.97,North,349,6.3,6.3,57,0.00,CLR,,0.00,WeatherDisplay:10.37,2013-02-04 19:19:00,
2013-02-04 13:24:00,38.1,24.2,29.97,NE,49,6.9,6.9,57,0.00,CLR,,0.00,WeatherDisplay:10.37,2013-02-04 19:24:00,
2013-02-04 13:29:00,38.1,24.2,29.97,NE,47,7.6,7.6,57,0.00,CLR,,0.00,WeatherDisplay:10.37,2013-02-04 19:29:00,
2013-02-04 13:34:00,37.9,24.0,29.97,NNE,25,8.1,8.1,57,0.00,CLR,,0.00,WeatherDisplay:10.37,2013-02-04 19:34:00,
2013-02-04 13:39:00,37.9,24.0,29.97,North,1,8.1,8.1,57,0.00,CLR,,0.00,WeatherDisplay:10.37,2013-02-04 19:39:00,
2013-02-04 13:44:00,37.8,23.9,29.97,North,354,5.8,5.8,57,0.00,CLR,,0.00,WeatherDisplay:10.37,2013-02-04 19:44:00,
2013-02-04 13:49:00,37.6,23.7,29.97,NE,54,9.2,9.2,57,0.00,CLR,,0.00,WeatherDisplay:10.37,2013-02-04 19:49:00,
2013-02-04 13:54:00,37.6,23.7,29.97,NNE,14,5.8,5.8,57,0.00,CLR,,0.00,WeatherDisplay:10.37,2013-02-04 19:54:00,
2013-02-04 13:59:00,37.8,23.9,29.97,NE,52,8.1,8.1,57,0.00,CLR,,0.00,WeatherDisplay:10.37,2013-02-04 19:59:00,
2013-02-04 14:04:00,37.9,23.6,29.97,NE,54,5.8,5.8,56,0.00,CLR,,0.00,WeatherDisplay:10.37,2013-02-04 20:04:00,
2013-02-04 14:10:00,38.1,23.8,29.97,NE,52,5.8,5.8,56,0.00,CLR,,0.00,WeatherDisplay:10.37,2013-02-04 20:10:00,
2013-02-04 14:15:00,38.3,24.0,29.97,NNW,339,9.2,9.2,56,0.00,CLR,,0.00,WeatherDisplay:10.37,2013-02-04 20:15:00,
2013-02-04 14:20:00,38.5,24.1,29.97,ENE,61,10.4,10.4,56,0.00,CLR,,0.00,WeatherDisplay:10.37,2013-02-04 20:20:00,
2013-02-04 14:25:00,38.5,24.1,29.97,West,275,8.1,8.1,56,0.00,CLR,,0.00,WeatherDisplay:10.37,2013-02-04 20:25:00,
2013-02-04 14:30:00,38.5,24.1,29.97,NNE,23,5.8,5.8,56,0.00,CLR,,0.00,WeatherDisplay:10.37,2013-02-04 20:30:00,
2013-02-04 14:35:00,38.7,24.3,29.97,NNE,29,5.8,5.8,56,0.00,CLR,,0.00,WeatherDisplay:10.37,2013-02-04 20:35:00,
2013-02-04 14:40:00,38.5,24.1,29.97,WNW,292,5.8,5.8,56,0.00,CLR,,0.00,WeatherDisplay:10.37,2013-02-04 20:40:00,
2013-02-04 14:45:00,38.8,24.5,29.97,NE,46,4.6,4.6,56,0.00,CLR,,0.00,WeatherDisplay:10.37,2013-02-04 20:45:00,
2013-02-04 14:50:00,39.0,24.6,29.97,WNW,292,5.8,5.8,56,0.00,CLR,,0.00,WeatherDisplay:10.37,2013-02-04 20:50:00,
2013-02-04 14:55:00,39.4,25.0,29.97,North,7,8.1,8.1,56,0.00,CLR,,0.00,WeatherDisplay:10.37,2013-02-04 20:55:00,
2013-02-04 15:00:00,39.2,24.8,29.97,NE,35,6.9,6.9,56,0.00,CLR,,0.00,WeatherDisplay:10.37,2013-02-04 21:00:00,
2013-02-04 15:05:00,39.0,23.8,29.97,NNE,27,5.0,7.0,54,0.00,CLR,,0.00,WeatherDisplay:10.37,2013-02-04 21:05:00,
2013-02-04 15:10:00,39.0,23.8,29.97,NNE,33,3.5,3.5,54,0.00,CLR,,0.00,WeatherDisplay:10.37,2013-02-04 21:10:00,
2013-02-04 15:15:00,39.2,23.9,29.97,NW,322,5.8,5.8,54,0.00,CLR,,0.00,WeatherDisplay:10.37,2013-02-04 21:15:00,
2013-02-04 15:20:00,39.2,23.9,29.97,North,353,5.8,5.8,54,0.00,CLR,,0.00,WeatherDisplay:10.37,2013-02-04 21:20:00,
2013-02-04 15:25:00,39.2,23.9,29.97,North,350,3.0,8.0,54,0.00,CLR,,0.00,WeatherDisplay:10.37,2013-02-04 21:25:00,
2013-02-04 15:30:00,39.2,23.9,29.97,North,1,8.1,8.1,54,0.00,CLR,,0.00,WeatherDisplay:10.37,2013-02-04 21:30:00,
2013-02-04 15:35:00,39.2,23.9,29.97,NNE,13,5.8,5.8,54,0.00,CLR,,0.00,WeatherDisplay:10.37,2013-02-04 21:35:00,
2013-02-04 15:40:00,39.2,23.9,29.97,NNE,28,5.8,5.8,54,0.00,CLR,,0.00,WeatherDisplay:10.37,2013-02-04 21:40:00,
2013-02-04 15:45:00,39.2,23.9,29.97,NNE,26,4.6,4.6,54,0.00,CLR,,0.00,WeatherDisplay:10.37,2013-02-04 21:45:00,
2013-02-04 15:50:00,39.2,23.9,29.97,NNE,32,5.8,5.8,54,0.00,CLR,,0.00,WeatherDisplay:10.37,2013-02-04 21:50:00,
2013-02-04 15:55:00,39.2,23.9,29.97,North,358,3.0,6.0,54,0.00,CLR,,0.00,WeatherDisplay:10.37,2013-02-04 21:55:00,
2013-02-04 16:00:00,38.8,23.6,29.97,North,357,3.5,3.5,54,0.00,CLR,,0.00,WeatherDisplay:10.37,2013-02-04 22:00:00,
2013-02-04 16:05:00,38.8,23.6,29.97,NE,35,4.6,5.4,54,0.00,CLR,,0.00,WeatherDisplay:10.37,2013-02-04 22:05:00,
2013-02-04 16:10:00,38.8,23.6,29.97,NNW,342,5.8,5.8,54,0.00,CLR,,0.00,WeatherDisplay:10.37,2013-02-04 22:10:00,
2013-02-04 16:15:00,38.5,23.3,29.97,NNW,338,3.6,3.6,54,0.00,CLR,,0.00,WeatherDisplay:10.37,2013-02-04 22:15:00,
2013-02-04 16:20:00,38.1,22.9,29.97,NNE,27,2.7,0.0,54,0.00,CLR,,0.00,WeatherDisplay:10.37,2013-02-04 22:20:00,
2013-02-04 16:25:00,38.1,22.9,29.97,North,351,1.0,5.0,54,0.00,CLR,,0.00,WeatherDisplay:10.37,2013-02-04 22:25:00,
2013-02-04 16:30:00,38.0,22.8,29.97,NNW,337,3.0,6.0,54,0.00,CLR,,0.00,WeatherDisplay:10.37,2013-02-04 22:30:00,
2013-02-04 16:35:00,37.8,22.6,29.97,North,350,3.5,3.5,54,0.00,CLR,,0.00,WeatherDisplay:10.37,2013-02-04 22:35:00,
2013-02-04 16:40:00,37.8,22.6,29.97,NE,43,4.6,4.6,54,0.00,CLR,,0.00,WeatherDisplay:10.37,2013-02-04 22:40:00,
2013-02-04 16:45:00,37.7,22.5,29.97,North,4,2.0,6.0,54,0.00,CLR,,0.00,WeatherDisplay:10.37,2013-02-04 22:45:00,
2013-02-04 16:50:00,37.4,22.3,29.97,NNW,335,3.6,3.6,54,0.00,CLR,,0.00,WeatherDisplay:10.37,2013-02-04 22:50:00,
2013-02-04 16:55:00,37.4,22.3,29.97,NE,43,3.6,3.6,54,0.00,CLR,,0.00,WeatherDisplay:10.37,2013-02-04 22:55:00,
2013-02-04 17:00:00,37.2,22.1,29.97,NW,323,4.6,4.6,54,0.00,CLR,,0.00,WeatherDisplay:10.37,2013-02-04 23:00:00,
2013-02-04 17:05:00,37.0,24.0,29.97,NW,308,2.3,2.3,59,0.00,CLR,,0.00,WeatherDisplay:10.37,2013-02-04 23:05:00,
2013-02-04 17:10:00,37.0,24.0,29.97,North,4,3.5,3.5,59,0.00,CLR,,0.00,WeatherDisplay:10.37,2013-02-04 23:10:00,
2013-02-04 17:15:00,37.0,21.9,29.97,WNW,294,3.5,3.5,54,0.00,CLR,,0.00,WeatherDisplay:10.37,2013-02-04 23:15:00,
2013-02-04 17:20:00,36.9,21.7,29.97,NW,306,2.3,2.3,54,0.00,CLR,,0.00,WeatherDisplay:10.37,2013-02-04 23:20:00,
2013-02-04 17:25:00,36.7,23.7,29.97,NW,324,0.0,0.0,59,0.00,CLR,,0.00,WeatherDisplay:10.37,2013-02-04 23:25:00,
2013-02-04 17:30:00,36.5,23.5,29.97,North,354,3.5,0.0,59,0.00,CLR,,0.00,WeatherDisplay:10.37,2013-02-04 23:30:00,
2013-02-04 17:35:00,36.1,23.2,29.97,North,4,3.5,3.5,59,0.00,CLR,,0.00,WeatherDisplay:10.37,2013-02-04 23:35:00,
2013-02-04 17:40:00,36.0,23.0,29.97,NNE,14,3.5,0.0,59,0.00,CLR,,0.00,WeatherDisplay:10.37,2013-02-04 23:40:00,
2013-02-04 17:45:00,35.6,22.7,29.97,North,9,2.2,0.0,59,0.00,CLR,,0.00,WeatherDisplay:10.37,2013-02-04 23:45:00,
2013-02-04 17:50:00,35.4,22.5,29.97,NNE,14,2.3,0.0,59,0.00,CLR,,0.00,WeatherDisplay:10.37,2013-02-04 23:50:00,
2013-02-04 17:55:00,35.1,22.2,29.97,NNE,14,0.0,0.0,59,0.00,CLR,,0.00,WeatherDisplay:10.37,2013-02-04 23:55:00,
2013-02-04 18:00:00,34.9,22.0,29.97,NNE,13,0.0,0.0,59,0.00,CLR,,0.00,WeatherDisplay:10.37,2013-02-05 00:00:00,
2013-02-04 18:05:00,34.5,25.4,29.97,NNE,14,0.0,0.0,69,0.00,CLR,,0.00,WeatherDisplay:10.37,2013-02-05 00:05:00,
2013-02-04 18:10:00,34.3,25.2,29.97,NNE,13,0.0,0.0,69,0.00,CLR,,0.00,WeatherDisplay:10.37,2013-02-05 00:10:00,
2013-02-04 18:15:00,34.0,24.9,29.97,NNE,13,0.0,0.0,69,0.00,CLR,,0.00,WeatherDisplay:10.37,2013-02-05 00:15:00,
2013-02-04 18:20:00,33.6,24.5,29.97,NNE,13,0.0,0.0,69,0.00,CLR,,0.00,WeatherDisplay:10.37,2013-02-05 00:20:00,
2013-02-04 18:25:00,33.3,24.2,29.97,SW,234,2.3,0.0,69,0.00,CLR,,0.00,WeatherDisplay:10.37,2013-02-05 00:25:00,
2013-02-04 18:30:00,33.1,24.0,29.97,West,263,2.3,0.0,69,0.00,CLR,,0.00,WeatherDisplay:10.37,2013-02-05 00:30:00,
2013-02-04 19:18:00,30.7,21.8,30.00,NNW,335,0.0,0.0,69,0.00,CLR,,0.00,WeatherDisplay:10.37,2013-02-05 01:18:00,
2013-02-04 19:23:00,30.4,21.4,30.00,NNW,335,0.0,0.0,69,0.00,CLR,,0.00,WeatherDisplay:10.37,2013-02-05 01:23:00,
2013-02-04 19:28:00,30.2,21.2,30.00,NNW,335,0.0,0.0,69,0.00,CLR,,0.00,WeatherDisplay:10.37,2013-02-05 01:28:00,
2013-02-04 19:33:00,30.0,21.1,29.97,NNW,335,0.0,0.0,69,0.00,CLR,,0.00,WeatherDisplay:10.37,2013-02-05 01:33:00,
2013-02-04 19:38:00,29.7,20.7,29.97,NNW,335,0.0,0.0,69,0.00,CLR,,0.00,WeatherDisplay:10.37,2013-02-05 01:38:00,
2013-02-04 19:43:00,29.5,20.6,29.97,NNW,335,0.0,0.0,69,0.00,CLR,,0.00,WeatherDisplay:10.37,2013-02-05 01:43:00,
2013-02-04 19:48:00,29.3,20.4,30.00,North,352,2.3,0.0,69,0.00,CLR,,0.00,WeatherDisplay:10.37,2013-02-05 01:48:00,
2013-02-04 19:53:00,29.1,20.2,30.00,West,276,2.3,0.0,69,0.00,CLR,,0.00,WeatherDisplay:10.37,2013-02-05 01:53:00,
2013-02-04 19:58:00,29.1,20.2,30.00,West,269,0.0,0.0,69,0.00,CLR,,0.00,WeatherDisplay:10.37,2013-02-05 01:58:00,
2013-02-04 20:03:00,29.1,20.2,30.00,West,269,0.0,0.0,69,0.00,CLR,,0.00,WeatherDisplay:10.37,2013-02-05 02:03:00,
2013-02-04 20:08:00,28.9,20.0,30.00,West,269,0.0,0.0,69,0.00,CLR,,0.00,WeatherDisplay:10.37,2013-02-05 02:08:00,
2013-02-04 20:13:00,28.8,21.5,30.00,WSW,245,0.0,0.0,74,0.00,CLR,,0.00,WeatherDisplay:10.37,2013-02-05 02:13:00,
2013-02-04 20:18:00,28.6,21.3,30.00,NW,316,0.0,0.0,74,0.00,CLR,,0.00,WeatherDisplay:10.37,2013-02-05 02:18:00,
2013-02-04 20:23:00,28.4,21.2,30.00,NW,316,0.0,0.0,74,0.00,CLR,,0.00,WeatherDisplay:10.37,2013-02-05 02:23:00,
2013-02-04 20:28:00,28.2,21.0,30.00,WNW,302,0.0,0.0,74,0.00,CLR,,0.00,WeatherDisplay:10.37,2013-02-05 02:28:00,
2013-02-04 20:33:00,28.0,20.8,30.00,WNW,302,0.0,0.0,74,0.00,CLR,,0.00,WeatherDisplay:10.37,2013-02-05 02:33:00,
2013-02-04 20:38:00,28.0,20.8,30.00,WNW,302,0.0,0.0,74,0.00,CLR,,0.00,WeatherDisplay:10.37,2013-02-05 02:38:00,
2013-02-04 20:43:00,27.9,20.6,30.00,WNW,302,0.0,0.0,74,0.00,CLR,,0.00,WeatherDisplay:10.37,2013-02-05 02:43:00,
2013-02-04 20:48:00,27.7,20.5,30.00,WNW,302,0.0,0.0,74,0.00,CLR,,0.00,WeatherDisplay:10.37,2013-02-05 02:48:00,
2013-02-04 20:53:00,27.5,20.3,30.00,WNW,302,0.0,0.0,74,0.00,CLR,,0.00,WeatherDisplay:10.37,2013-02-05 02:53:00,
2013-02-04 20:58:00,27.3,20.1,30.00,WNW,301,0.0,0.0,74,0.00,CLR,,0.00,WeatherDisplay:10.37,2013-02-05 02:58:00,
2013-02-04 21:03:00,27.0,19.8,30.00,WNW,302,0.0,0.0,74,0.00,CLR,,0.00,WeatherDisplay:10.37,2013-02-05 03:03:00,
2013-02-04 21:08:00,27.0,19.8,30.00,WNW,302,0.0,0.0,74,0.00,CLR,,0.00,WeatherDisplay:10.37,2013-02-05 03:08:00,
2013-02-04 21:13:00,26.8,19.6,30.00,WNW,302,0.0,0.0,74,0.00,CLR,,0.00,WeatherDisplay:10.37,2013-02-05 03:13:00,
2013-02-04 21:18:00,26.8,19.6,30.00,WNW,302,0.0,0.0,74,0.00,CLR,,0.00,WeatherDisplay:10.37,2013-02-05 03:18:00,
2013-02-04 21:23:00,26.8,19.6,30.00,WNW,302,0.0,0.0,74,0.00,CLR,,0.00,WeatherDisplay:10.37,2013-02-05 03:23:00,
2013-02-04 21:28:00,26.8,19.6,30.00,WNW,302,0.0,0.0,74,0.00,CLR,,0.00,WeatherDisplay:10.37,2013-02-05 03:28:00,
2013-02-04 21:33:00,26.8,19.6,30.00,WNW,302,0.0,0.0,74,0.00,CLR,,0.00,WeatherDisplay:10.37,2013-02-05 03:33:00,
2013-02-04 21:38:00,26.6,19.4,30.00,WNW,302,0.0,0.0,74,0.00,CLR,,0.00,WeatherDisplay:10.37,2013-02-05 03:38:00,
2013-02-04 21:43:00,26.4,19.3,30.00,WNW,302,0.0,0.0,74,0.00,CLR,,0.00,WeatherDisplay:10.37,2013-02-05 03:43:00,
2013-02-04 21:48:00,26.2,19.1,30.00,WNW,302,0.0,0.0,74,0.00,CLR,,0.00,WeatherDisplay:10.37,2013-02-05 03:48:00,
2013-02-04 21:53:00,26.1,18.9,30.00,WNW,302,0.0,0.0,74,0.00,CLR,,0.00,WeatherDisplay:10.37,2013-02-05 03:53:00,
2013-02-04 21:58:00,26.1,18.9,30.00,WNW,302,0.0,0.0,74,0.00,CLR,,0.00,WeatherDisplay:10.37,2013-02-05 03:58:00,
2013-02-04 22:03:00,25.9,19.7,30.00,WNW,302,0.0,0.0,77,0.00,CLR,,0.00,WeatherDisplay:10.37,2013-02-05 04:03:00,
2013-02-04 22:08:00,25.7,19.5,30.00,WNW,302,0.0,0.0,77,0.00,CLR,,0.00,WeatherDisplay:10.37,2013-02-05 04:08:00,
2013-02-04 22:13:00,25.5,19.3,30.00,WNW,302,0.0,0.0,77,0.00,CLR,,0.00,WeatherDisplay:10.37,2013-02-05 04:13:00,
2013-02-04 22:18:00,25.3,19.1,30.00,WNW,302,0.0,0.0,77,0.00,CLR,,0.00,WeatherDisplay:10.37,2013-02-05 04:18:00,
2013-02-04 22:23:00,25.2,19.0,30.00,WNW,302,0.0,0.0,77,0.00,CLR,,0.00,WeatherDisplay:10.37,2013-02-05 04:23:00,
2013-02-04 22:28:00,25.2,19.0,30.00,WNW,302,0.0,0.0,77,0.00,CLR,,0.00,WeatherDisplay:10.37,2013-02-05 04:28:00,
2013-02-04 22:33:00,25.0,18.8,30.00,WNW,302,0.0,0.0,77,0.00,CLR,,0.00,WeatherDisplay:10.37,2013-02-05 04:33:00,
2013-02-04 22:38:00,25.0,18.8,30.00,WNW,302,0.0,0.0,77,0.00,CLR,,0.00,WeatherDisplay:10.37,2013-02-05 04:38:00,
2013-02-04 22:44:00,24.8,18.6,30.00,WNW,302,0.0,0.0,77,0.00,CLR,,0.00,WeatherDisplay:10.37,2013-02-05 04:44:00,
2013-02-04 22:49:00,24.6,18.4,29.97,WNW,302,0.0,0.0,77,0.00,CLR,,0.00,WeatherDisplay:10.37,2013-02-05 04:49:00,
2013-02-04 22:54:00,24.6,18.4,29.97,WNW,301,0.0,0.0,77,0.00,CLR,,0.00,WeatherDisplay:10.37,2013-02-05 04:54:00,
2013-02-04 22:59:00,24.4,18.3,29.97,WNW,302,0.0,0.0,77,0.00,CLR,,0.00,WeatherDisplay:10.37,2013-02-05 04:59:00,
2013-02-04 23:00:00,24.4,18.3,29.97,WNW,302,0.0,0.0,77,0.00,CLR,,0.00,WeatherDisplay:10.37,2013-02-05 05:00:00,
2013-02-04 23:05:00,24.4,18.3,29.97,WNW,302,0.0,0.0,77,0.00,CLR,,0.00,WeatherDisplay:10.37,2013-02-05 05:05:00,
2013-02-04 23:10:00,24.3,18.1,29.97,WNW,302,0.0,0.0,77,0.00,CLR,,0.00,WeatherDisplay:10.37,2013-02-05 05:10:00,
2013-02-04 23:15:00,24.3,19.8,29.97,WNW,302,0.0,0.0,83,0.00,CLR,,0.00,WeatherDisplay:10.37,2013-02-05 05:15:00,
2013-02-04 23:21:00,24.4,20.0,29.97,WNW,302,0.0,0.0,83,0.00,CLR,,0.00,WeatherDisplay:10.37,2013-02-05 05:21:00,
2013-02-04 23:26:00,24.4,20.0,29.97,WNW,302,0.0,0.0,83,0.00,CLR,,0.00,WeatherDisplay:10.37,2013-02-05 05:26:00,
2013-02-04 23:31:00,24.4,20.0,29.97,WNW,302,0.0,0.0,83,0.00,CLR,,0.00,WeatherDisplay:10.37,2013-02-05 05:31:00,
2013-02-04 23:36:00,24.4,20.0,29.94,WNW,302,0.0,0.0,83,0.00,CLR,,0.00,WeatherDisplay:10.37,2013-02-05 05:36:00,
2013-02-04 23:41:00,24.4,20.0,29.94,WNW,302,0.0,0.0,83,0.00,CLR,,0.00,WeatherDisplay:10.37,2013-02-05 05:41:00,
2013-02-04 23:46:00,24.4,20.0,29.94,WNW,302,0.0,0.0,83,0.00,CLR,,0.00,WeatherDisplay:10.37,2013-02-05 05:46:00,
2013-02-04 23:51:00,24.4,20.0,29.97,WNW,302,0.0,0.0,83,0.00,CLR,,0.00,WeatherDisplay:10.37,2013-02-05 05:51:00,
2013-02-04 23:56:00,24.4,20.0,29.97,WNW,302,0.0,0.0,83,0.00,CLR,,0.00,WeatherDisplay:10.37,2013-02-05 05:56:00,